This is the latest recevied weather packets stored in our database for station/object WB4MOZ-3. If no packets are shown the sender has not sent any weather packets the latest 10 day(s).
| Time | Temp. | Humidity | Pressure | Rain* | Wind** | Luminosity | Snow |
|---|---|---|---|---|---|---|---|
| 1777677165 | 30° C | 60% | 1008.1 hPa | 0 mm | - | - | - |
| 1777676864 | 30.56° C | 59% | 1008 hPa | 0 mm | - | - | - |
| 1777676264 | 30.56° C | 59% | 1007.8 hPa | 0 mm | - | - | - |
| 1777675964 | 30.56° C | 59% | 1007.8 hPa | 0 mm | - | - | - |
| 1777675665 | 31.11° C | 58% | 1007.6 hPa | 0 mm | - | - | - |
| 1777675364 | 31.11° C | 58% | 1007.7 hPa | 0 mm | - | - | - |
| 1777674764 | 31.67° C | 58% | 1007.6 hPa | 0 mm | - | - | - |
| 1777674465 | 31.67° C | 56% | 1007.7 hPa | 0 mm | - | - | - |
| 1777674165 | 32.22° C | 56% | 1007.7 hPa | 0 mm | - | - | - |
| 1777673864 | 32.22° C | 55% | 1007.8 hPa | 0 mm | - | - | - |
| 1777673564 | 32.78° C | 53% | 1007.7 hPa | 0 mm | - | - | - |
| 1777673264 | 33.33° C | 52% | 1007.7 hPa | 0 mm | - | - | - |
| 1777672965 | 33.33° C | 47% | 1007.7 hPa | 0 mm | - | - | - |
| 1777672664 | 33.33° C | 37% | 1007.7 hPa | 0 mm | - | - | - |
| 1777672364 | 33.33° C | 39% | 1007.7 hPa | 0 mm | - | - | - |
| 1777672065 | 33.33° C | 38% | 1007.8 hPa | 0 mm | - | - | - |
| 1777671764 | 33.33° C | 39% | 1007.7 hPa | 0 mm | - | - | - |
| 1777671464 | 33.89° C | 38% | 1007.7 hPa | 0 mm | - | - | - |
| 1777671164 | 33.89° C | 39% | 1007.8 hPa | 0 mm | - | - | - |
| 1777670865 | 33.89° C | 39% | 1007.8 hPa | 0 mm | - | - | - |
| 1777670564 | 33.89° C | 38% | 1007.9 hPa | 0 mm | - | - | - |
| 1777670264 | 33.89° C | 38% | 1008 hPa | 0 mm | - | - | - |
| 1777669964 | 33.89° C | 36% | 1007.9 hPa | 0 mm | - | - | - |
| 1777669664 | 34.44° C | 36% | 1008 hPa | 0 mm | - | - | - |
| 1777669364 | 34.44° C | 37% | 1008 hPa | 0 mm | - | - | - |
* Rain latest hour (hover to see other rain measurements)
** Current wind speed in m/s (hover to see current wind gust speed)